User: anonymous   Login
Location: Spring Creek
(38.2870°N, 100.2160°W)
Time: 05:30:17
(UTC+00:00)
Language:

IDEFIX/ARIANE 42P - Orbit

View from above orbital plane
View from above orbital plane
View from above satellite
View from above satellite

Ground track
Ground track

The orbit data is extracted from the following two-line orbital elements,

1 27422U 02021B   21210.46011372  .00000012  00000-0  21140-4 0  9997
2 27422  98.4044 161.9697 0013370 106.9794 253.2855 14.29325750  3312
Epoch (UTC): 29 July 2021 11:02:33
Eccentricity: 0.0013370
inclination: 98.4044°
perigee height: 784 km
apogee height: 803 km
right ascension of ascending node: 161.9697°
argument of perigee: 106.9794°
revolutions per day: 14.29325750
mean anomaly at epoch: 253.2855°
orbit number at epoch: 331

The dashed part of the orbit path shows where the satellite is in the earth's shadow,  

DLR